Home > Weather > Salinas > Past weeks

Flag for USA Weather for the Past 2 Weeks in Salinas, California, USA

Now
53 °F

Overcast.


Feels Like: 50 °F
Forecast: 50 / 64 °F
Wind: 10 mph from Southwest

Location: Salinas Municipal Airport

Current Time: Apr 29, 2016 at 1:47:46 AM

Latest Report: Apr 29, 2016 at 12:53 AM


Visibility: 9 mi

Pressure: 30.05 "Hg

Humidity: 77%

Dew Point: 46 °F

Location of SalinasLocation

Historic Weather in Salinas — Graph

°F

Salinas Temperature Yesterday

Maximum temperature yesterday: 64 °F (at 11:53 AM)
Minimum temperature yesterday: 50 °F (at 2:53 AM)
Average temperature yesterday: 56 °F

High & Low Weather Summary for the Past Weeks

 TemperatureHumidityPressure
High87 °F (Apr 18, 1:53 PM)90% (Apr 21, 3:53 AM)30.23 "Hg (Apr 21, 3:53 AM)
Low43 °F (Apr 26, 6:53 AM)12% (Apr 18, 1:53 PM)29.90 "Hg (Apr 22, 5:53 AM)
Average59 °F62%30.05 "Hg
* Reported Apr 13 11:53 PM — Apr 28 11:53 PM, Salinas, Weather by CustomWeather, © 2016

Note: Actual official high and low records may vary slightly from our data, if they occured in-between our weather recording intervals... More about our weather records

Advertising

Salinas Weather History for the Previous 24 Hours

Scroll right to see more
 ConditionsComfort  
Time TempWeatherWind HumidityBarometerVisibility
11:53 PM
Thu, Apr 28
53 °FPassing clouds.10 mph77%30.04 "Hg9 mi
10:53 PM53 °FClear.9 mph77%30.03 "Hg9 mi
9:53 PM54 °FPartly cloudy.16 mph74%30.04 "Hg9 mi
9:01 PM54 °FPassing clouds.15 mph77%30.00 "Hg9 mi
8:53 PM54 °FPassing clouds.15 mph74%30.02 "Hg9 mi
7:53 PM56 °FPartly sunny.13 mph72%30.00 "Hg8 mi
6:53 PM57 °FOvercast.15 mph69%29.99 "Hg8 mi
5:53 PM58 °FOvercast.20 mph70%29.98 "Hg8 mi
4:53 PM60 °FPartly sunny.20 mph65%29.98 "Hg9 mi
4:04 PM61 °FPartly sunny.17 mph62%29.96 "Hg9 mi
3:03 PM62 °FScattered clouds.17 mph60%29.96 "Hg10 mi
2:53 PM62 °FPartly sunny.15 mph58%29.99 "Hg10 mi
1:53 PM61 °FSunny.20 mph58%29.98 "Hg10 mi
12:53 PM62 °FSunny.18 mph58%29.97 "Hg10 mi
11:53 AM64 °FSunny.7 mph52%29.96 "Hg10 mi
10:53 AM61 °FSunny.6 mph60%29.97 "Hg10 mi
9:53 AM58 °FSunny.9 mph67%29.97 "Hg10 mi
8:53 AM56 °FSunny.12 mph70%29.96 "Hg10 mi
8:04 AM54 °FScattered clouds.9 mph72%29.93 "Hg9 mi
7:53 AM53 °FPartly sunny.7 mph74%29.96 "Hg9 mi
6:53 AM52 °FOvercast.6 mph77%29.94 "Hg8 mi
5:53 AM51 °FOvercast.8 mph83%29.92 "Hg8 mi
4:53 AM50 °FPassing clouds.8 mph83%29.92 "Hg8 mi
3:53 AM50 °FPassing clouds.8 mph83%29.91 "Hg8 mi
2:53 AM50 °FOvercast.6 mph83%29.91 "Hg8 mi
1:53 AM51 °FOvercast.9 mph80%29.92 "Hg8 mi
Weather by CustomWeather, © 2016

See weather overviewHow to use our weather pages